Time,TemperatureF,DewpointF,PressureIn,WindDirection,WindDirectionDegrees,WindSpeedMPH,WindSpeedGustMPH,Humidity,HourlyPrecipIn,Conditions,Clouds,dailyrainin,SoftwareType,DateUTC
2013-08-09 00:06:00,68.4,66.9,29.92,SSE,148,0.0,0.0,95,0.00,,,0.00,Wunderground v.1.15,2013-08-09 04:06:00,
2013-08-09 00:16:00,68.1,66.6,29.91,SSE,148,0.0,0.0,95,0.00,,,0.00,Wunderground v.1.15,2013-08-09 04:16:00,
2013-08-09 00:36:00,67.4,66.2,29.91,SSE,148,0.0,0.0,96,0.00,,,0.00,Wunderground v.1.15,2013-08-09 04:36:00,
2013-08-09 00:46:00,67.4,66.2,29.91,SSW,192,0.0,2.0,96,0.00,,,0.00,Wunderground v.1.15,2013-08-09 04:46:00,
2013-08-09 00:56:00,67.3,66.1,29.91,SSW,192,0.0,0.0,96,0.00,,,0.00,Wunderground v.1.15,2013-08-09 04:56:00,
2013-08-09 02:56:00,66.6,65.7,29.87,SSW,192,0.0,0.0,97,0.00,,,0.00,Wunderground v.1.15,2013-08-09 06:56:00,
2013-08-09 03:16:00,67.3,66.7,29.87,SSW,192,0.0,0.0,98,0.00,,,0.00,Wunderground v.1.15,2013-08-09 07:16:00,
2013-08-09 03:26:00,66.8,66.2,29.87,SSW,192,0.0,0.0,98,0.00,,,0.00,Wunderground v.1.15,2013-08-09 07:26:00,
2013-08-09 03:36:00,66.4,65.8,29.86,SSW,192,0.0,0.0,98,0.00,,,0.00,Wunderground v.1.15,2013-08-09 07:36:00,
2013-08-09 03:46:00,66.8,66.2,29.85,SSW,192,0.0,0.0,98,0.00,,,0.00,Wunderground v.1.15,2013-08-09 07:46:00,
2013-08-09 03:56:00,66.8,66.2,29.85,SSW,192,0.0,0.0,98,0.00,,,0.00,Wunderground v.1.15,2013-08-09 07:56:00,
2013-08-09 04:26:00,67.3,66.7,29.85,SSW,192,0.0,0.0,98,0.08,,,0.04,Wunderground v.1.15,2013-08-09 08:26:00,
2013-08-09 04:35:00,67.1,66.5,29.84,SSW,192,0.0,0.0,98,0.00,,,0.04,Wunderground v.1.15,2013-08-09 08:35:00,
2013-08-09 04:46:00,67.1,66.5,29.83,SSW,192,0.0,0.0,98,0.10,,,0.12,Wunderground v.1.15,2013-08-09 08:46:00,
2013-08-09 04:56:00,66.8,66.2,29.83,SSW,192,0.0,0.0,98,0.04,,,0.12,Wunderground v.1.15,2013-08-09 08:56:00,
2013-08-09 05:05:00,66.9,66.3,29.83,SSW,192,0.0,0.0,98,0.11,,,0.14,Wunderground v.1.15,2013-08-09 09:05:00,
2013-08-09 05:25:00,67.1,66.8,29.85,WSW,252,1.0,1.0,99,0.21,,,0.39,Wunderground v.1.15,2013-08-09 09:25:00,
2013-08-09 05:36:00,67.3,67.0,29.84,WSW,252,0.0,0.0,99,0.09,,,0.40,Wunderground v.1.15,2013-08-09 09:36:00,
2013-08-09 05:46:00,67.4,67.1,29.84,WSW,252,0.0,0.0,99,0.04,,,0.40,Wunderground v.1.15,2013-08-09 09:46:00,
2013-08-09 05:56:00,67.6,67.3,29.84,WSW,252,0.0,0.0,99,0.00,,,0.41,Wunderground v.1.15,2013-08-09 09:56:00,
2013-08-09 06:26:00,67.3,67.0,29.83,East,86,1.0,1.0,99,0.09,,,0.57,Wunderground v.1.15,2013-08-09 10:26:00,
2013-08-09 07:06:00,67.8,67.5,29.83,SSE,153,0.0,0.0,99,0.00,,,0.59,Wunderground v.1.15,2013-08-09 11:06:00,
2013-08-09 07:16:00,67.8,67.5,29.83,SSE,153,0.0,0.0,99,0.00,,,0.59,Wunderground v.1.15,2013-08-09 11:16:00,
2013-08-09 07:26:00,67.8,67.5,29.83,SSE,153,0.0,0.0,99,0.00,,,0.59,Wunderground v.1.15,2013-08-09 11:26:00,
2013-08-09 07:36:00,67.8,67.5,29.83,SSE,153,0.0,0.0,99,0.00,,,0.59,Wunderground v.1.15,2013-08-09 11:36:00,
2013-08-09 08:06:00,67.8,67.5,29.84,SSE,153,1.0,1.0,99,0.08,,,0.66,Wunderground v.1.15,2013-08-09 12:06:00,
2013-08-09 08:15:00,67.8,67.5,29.84,ESE,121,1.0,1.0,99,0.00,,,0.66,Wunderground v.1.15,2013-08-09 12:15:00,
2013-08-09 08:26:00,67.9,67.6,29.84,ESE,121,0.0,0.0,99,0.00,,,0.66,Wunderground v.1.15,2013-08-09 12:26:00,
2013-08-09 08:36:00,67.9,67.6,29.84,ESE,121,0.0,0.0,99,0.00,,,0.66,Wunderground v.1.15,2013-08-09 12:36:00,
2013-08-09 08:46:00,68.3,68.0,29.83,ESE,121,0.0,0.0,99,0.00,,,0.67,Wunderground v.1.15,2013-08-09 12:46:00,
2013-08-09 09:16:00,68.6,68.3,29.82,SE,128,1.0,1.0,99,0.00,,,0.68,Wunderground v.1.15,2013-08-09 13:16:00,
2013-08-09 09:36:00,68.8,68.5,29.82,SE,132,2.0,2.0,99,0.00,,,0.69,Wunderground v.1.15,2013-08-09 13:36:00,
2013-08-09 09:45:00,68.9,68.6,29.82,SE,136,1.0,2.0,99,0.14,,,0.82,Wunderground v.1.15,2013-08-09 13:45:00,
2013-08-09 09:56:00,68.9,68.6,29.82,SSE,152,3.0,3.0,99,0.04,,,0.82,Wunderground v.1.15,2013-08-09 13:56:00,
2013-08-09 10:36:00,68.8,68.5,29.82,SE,140,2.0,2.0,99,0.33,,,0.91,Wunderground v.1.15,2013-08-09 14:36:00,
2013-08-09 10:46:00,68.8,68.5,29.82,SSE,152,1.0,1.0,99,0.31,,,0.98,Wunderground v.1.15,2013-08-09 14:46:00,
2013-08-09 10:56:00,68.8,68.5,29.82,SSE,152,0.0,0.0,99,0.10,,,0.99,Wunderground v.1.15,2013-08-09 14:56:00,
2013-08-09 11:06:00,68.8,68.5,29.81,SSE,152,0.0,0.0,99,0.04,,,0.99,Wunderground v.1.15,2013-08-09 15:06:00,
2013-08-09 11:16:00,68.6,68.3,29.81,SE,144,1.0,1.0,99,0.09,,,1.01,Wunderground v.1.15,2013-08-09 15:16:00,
2013-08-09 11:26:00,68.6,68.3,29.81,SE,144,1.0,1.0,99,0.05,,,1.01,Wunderground v.1.15,2013-08-09 15:26:00,
2013-08-09 11:56:00,67.9,67.6,29.80,West,267,0.0,2.0,99,0.08,,,1.05,Wunderground v.1.15,2013-08-09 15:56:00,
2013-08-09 12:06:00,67.9,67.6,29.80,West,275,1.0,1.0,99,0.23,,,1.07,Wunderground v.1.15,2013-08-09 16:06:00,
2013-08-09 12:16:00,68.1,67.8,29.80,West,275,0.0,0.0,99,0.08,,,1.08,Wunderground v.1.15,2013-08-09 16:16:00,
2013-08-09 12:35:00,68.6,68.3,29.80,West,275,0.0,0.0,99,0.00,,,1.08,Wunderground v.1.15,2013-08-09 16:35:00,
2013-08-09 12:46:00,68.8,68.5,29.79,SE,136,1.0,1.0,99,0.00,,,1.08,Wunderground v.1.15,2013-08-09 16:46:00,
2013-08-09 12:56:00,69.3,69.0,29.79,South,180,1.0,1.0,99,0.00,,,1.08,Wunderground v.1.15,2013-08-09 16:56:00,
2013-08-09 13:26:00,69.1,68.8,29.78,South,180,0.0,0.0,99,0.21,,,1.10,Wunderground v.1.15,2013-08-09 17:26:00,
2013-08-09 13:55:00,68.4,68.1,29.76,SE,129,3.0,5.0,99,0.23,,,1.21,Wunderground v.1.15,2013-08-09 17:55:00,
2013-08-09 14:06:00,68.1,67.8,29.76,ESE,119,3.0,4.0,99,0.25,,,1.26,Wunderground v.1.15,2013-08-09 18:06:00,
2013-08-09 14:16:00,68.1,67.8,29.75,SE,146,3.0,7.0,99,0.18,,,1.30,Wunderground v.1.15,2013-08-09 18:16:00,
2013-08-09 14:26:00,68.1,67.8,29.75,SSE,150,3.0,3.0,99,0.07,,,1.32,Wunderground v.1.15,2013-08-09 18:26:00,
2013-08-09 14:56:00,67.8,67.5,29.74,SE,145,1.0,3.0,99,0.24,,,1.35,Wunderground v.1.15,2013-08-09 18:56:00,
2013-08-09 15:36:00,67.3,67.0,29.73,SE,132,2.0,3.0,99,0.24,,,1.52,Wunderground v.1.15,2013-08-09 19:36:00,
2013-08-09 15:46:00,67.4,67.1,29.73,SE,132,1.0,3.0,99,0.10,,,1.54,Wunderground v.1.15,2013-08-09 19:46:00,
2013-08-09 15:56:00,66.9,66.6,29.73,SE,144,3.0,3.0,99,0.07,,,1.56,Wunderground v.1.15,2013-08-09 19:56:00,
2013-08-09 16:06:00,67.3,67.0,29.72,SE,144,0.0,1.0,99,0.06,,,1.57,Wunderground v.1.15,2013-08-09 20:06:00,
2013-08-09 16:45:00,67.3,67.0,29.72,SE,144,0.0,0.0,99,0.22,,,1.74,Wunderground v.1.15,2013-08-09 20:45:00,
2013-08-09 17:06:00,67.3,67.0,29.71,SE,144,0.0,0.0,99,0.10,,,1.80,Wunderground v.1.15,2013-08-09 21:06:00,
2013-08-09 17:16:00,67.4,67.1,29.70,SE,144,0.0,0.0,99,0.16,,,1.83,Wunderground v.1.15,2013-08-09 21:16:00,
2013-08-09 17:26:00,67.6,67.3,29.70,SE,144,0.0,0.0,99,0.10,,,1.84,Wunderground v.1.15,2013-08-09 21:26:00,
2013-08-09 17:46:00,67.6,67.3,29.70,SE,144,0.0,0.0,99,0.00,,,1.84,Wunderground v.1.15,2013-08-09 21:46:00,
2013-08-09 18:06:00,68.1,67.8,29.68,SE,144,0.0,0.0,99,0.13,,,1.88,Wunderground v.1.15,2013-08-09 22:06:00,
2013-08-09 18:16:00,68.3,68.0,29.66,SE,144,0.0,0.0,99,0.04,,,1.88,Wunderground v.1.15,2013-08-09 22:16:00,
2013-08-09 18:26:00,67.9,67.6,29.66,SE,144,0.0,2.0,99,0.00,,,1.88,Wunderground v.1.15,2013-08-09 22:26:00,
2013-08-09 18:56:00,68.1,67.8,29.65,WNW,294,1.0,1.0,99,0.00,,,1.88,Wunderground v.1.15,2013-08-09 22:56:00,
2013-08-09 19:06:00,67.9,67.6,29.65,WNW,294,0.0,0.0,99,0.00,,,1.88,Wunderground v.1.15,2013-08-09 23:06:00,
2013-08-09 19:16:00,67.8,67.5,29.67,WNW,294,0.0,0.0,99,0.00,,,1.88,Wunderground v.1.15,2013-08-09 23:16:00,
2013-08-09 19:26:00,67.8,67.5,29.67,WNW,294,0.0,0.0,99,0.00,,,1.88,Wunderground v.1.15,2013-08-09 23:26:00,
2013-08-09 19:35:00,67.8,67.5,29.67,WNW,294,0.0,0.0,99,0.00,,,1.88,Wunderground v.1.15,2013-08-09 23:35:00,
2013-08-09 19:45:00,67.3,67.0,29.67,WNW,294,0.0,0.0,99,0.00,,,1.88,Wunderground v.1.15,2013-08-09 23:45:00,
2013-08-09 19:55:00,66.4,66.1,29.67,WNW,294,0.0,0.0,99,0.00,,,1.88,Wunderground v.1.15,2013-08-09 23:55:00,
2013-08-09 20:06:00,66.0,65.7,29.67,WNW,294,0.0,0.0,99,0.00,,,1.88,Wunderground v.1.15,2013-08-10 00:06:00,
2013-08-09 20:25:00,66.0,65.7,29.67,WNW,297,0.0,0.0,99,0.00,,,1.88,Wunderground v.1.15,2013-08-10 00:25:00,
2013-08-09 20:36:00,65.6,65.3,29.67,WNW,297,0.0,0.0,99,0.00,,,1.88,Wunderground v.1.15,2013-08-10 00:36:00,
2013-08-09 20:46:00,66.0,65.7,29.68,WNW,297,0.0,0.0,99,0.00,,,1.88,Wunderground v.1.15,2013-08-10 00:46:00,
2013-08-09 20:56:00,66.0,65.7,29.68,WNW,297,0.0,0.0,99,0.00,,,1.88,Wunderground v.1.15,2013-08-10 00:56:00,
2013-08-09 21:06:00,65.8,65.5,29.68,WNW,297,0.0,0.0,99,0.00,,,1.88,Wunderground v.1.15,2013-08-10 01:06:00,
2013-08-09 21:16:00,65.8,65.5,29.68,WNW,297,0.0,0.0,99,0.00,,,1.88,Wunderground v.1.15,2013-08-10 01:16:00,
2013-08-09 21:36:00,65.2,64.9,29.68,WNW,297,0.0,0.0,99,0.00,,,1.88,Wunderground v.1.15,2013-08-10 01:36:00,
2013-08-09 21:46:00,64.7,64.4,29.68,WNW,297,1.0,1.0,99,0.00,,,1.88,Wunderground v.1.15,2013-08-10 01:46:00,
2013-08-09 21:56:00,64.7,64.4,29.68,WNW,297,0.0,1.0,99,0.00,,,1.88,Wunderground v.1.15,2013-08-10 01:56:00,
2013-08-09 22:16:00,64.5,64.2,29.68,WNW,297,0.0,0.0,99,0.00,,,1.88,Wunderground v.1.15,2013-08-10 02:16:00,
2013-08-09 22:35:00,64.2,63.9,29.67,WNW,297,0.0,0.0,99,0.00,,,1.88,Wunderground v.1.15,2013-08-10 02:35:00,
2013-08-09 22:45:00,63.7,63.4,29.67,SSE,154,1.0,1.0,99,0.00,,,1.88,Wunderground v.1.15,2013-08-10 02:45:00,
2013-08-09 22:56:00,63.4,63.1,29.67,SSE,154,1.0,1.0,99,0.00,,,1.88,Wunderground v.1.15,2013-08-10 02:56:00,
2013-08-09 23:26:00,62.6,62.3,29.68,SSW,200,2.0,2.0,99,0.00,,,1.88,Wunderground v.1.15,2013-08-10 03:26:00,
2013-08-09 23:46:00,62.6,62.3,29.67,SSW,200,0.0,0.0,99,0.00,,,1.88,Wunderground v.1.15,2013-08-10 03:46:00,